TimeEDT,TemperatureF,Dew PointF,Humidity,Sea Level PressureIn,VisibilityMPH,Wind Direction,Wind SpeedMPH,Gust SpeedMPH,PrecipitationIn,Events,Conditions,WindDirDegrees,DateUTC
12:51 AM,52.0,46.9,83,30.09,10.0,NNW,3.5,-,N/A,,Clear,330,2012-09-10 04:51:00
1:51 AM,52.0,46.9,83,30.09,10.0,NNW,3.5,-,N/A,,Clear,330,2012-09-10 05:51:00
2:51 AM,51.1,45.0,80,30.11,10.0,NNW,3.5,-,N/A,,Clear,340,2012-09-10 06:51:00
3:51 AM,51.1,45.0,80,30.11,10.0,Calm,Calm,-,N/A,,Clear,0,2012-09-10 07:51:00
4:51 AM,48.9,44.1,83,30.12,10.0,NNW,3.5,-,N/A,,Clear,340,2012-09-10 08:51:00
5:51 AM,48.0,45.0,89,30.14,7.0,WNW,3.5,-,N/A,,Clear,300,2012-09-10 09:51:00
6:51 AM,50.0,46.0,86,30.16,10.0,NNW,3.5,-,N/A,,Clear,340,2012-09-10 10:51:00
7:51 AM,50.0,46.9,89,30.19,10.0,Calm,Calm,-,N/A,,Clear,0,2012-09-10 11:51:00
8:51 AM,59.0,48.0,67,30.20,10.0,NW,4.6,-,N/A,,Clear,310,2012-09-10 12:51:00
9:51 AM,63.0,46.0,54,30.21,10.0,NNW,4.6,-,N/A,,Partly Cloudy,340,2012-09-10 13:51:00
10:51 AM,63.0,46.9,56,30.22,10.0,NNW,5.8,-,N/A,,Mostly Cloudy,330,2012-09-10 14:51:00
11:51 AM,64.0,45.0,50,30.23,10.0,North,9.2,-,N/A,,Mostly Cloudy,350,2012-09-10 15:51:00
12:51 PM,64.0,46.0,52,30.22,10.0,NNW,8.1,-,N/A,,Mostly Cloudy,340,2012-09-10 16:51:00
1:51 PM,66.9,43.0,42,30.21,10.0,North,9.2,-,N/A,,Mostly Cloudy,350,2012-09-10 17:51:00
2:51 PM,70.0,45.0,41,30.19,10.0,Variable,6.9,-,N/A,,Mostly Cloudy,0,2012-09-10 18:51:00
3:51 PM,71.1,46.0,41,30.18,10.0,North,11.5,-,N/A,,Scattered Clouds,360,2012-09-10 19:51:00
4:51 PM,70.0,44.1,39,30.19,10.0,NNW,8.1,-,N/A,,Scattered Clouds,330,2012-09-10 20:51:00
5:51 PM,68.0,45.0,43,30.19,10.0,North,4.6,-,N/A,,Scattered Clouds,360,2012-09-10 21:51:00
6:51 PM,64.9,46.0,50,30.19,10.0,North,6.9,-,N/A,,Scattered Clouds,350,2012-09-10 22:51:00
7:51 PM,61.0,44.1,54,30.19,10.0,North,4.6,-,N/A,,Scattered Clouds,10,2012-09-10 23:51:00
8:51 PM,60.1,44.1,55,30.20,10.0,NNE,3.5,-,N/A,,Scattered Clouds,30,2012-09-11 00:51:00
9:51 PM,55.9,44.1,64,30.21,10.0,NE,4.6,-,N/A,,Scattered Clouds,40,2012-09-11 01:51:00
10:51 PM,57.0,42.1,57,30.21,10.0,Calm,Calm,-,N/A,,Partly Cloudy,0,2012-09-11 02:51:00
11:51 PM,53.1,44.1,71,30.22,10.0,Calm,Calm,-,N/A,,Partly Cloudy,0,2012-09-11 03:51:00